Tracking 22441 objects as of 28-Feb-2021
HD Live streaming from Space Station
objects crossing your sky now

DELTA 1 DEB

Track DELTA 1 DEB now!
10-day predictions


NORAD ID: 21369
Int'l Code: 1975-052CP
Perigee: 751.8 km
Apogee: 889.9 km
Inclination: 99.7 °
Period: 101.2 minutes
Semi major axis: 7191 km
RCS: 0.052 m2 (small)
Launch date: June 12, 1975
Source: United States (US)
Launch site: AIR FORCE WESTERN TEST RANGE (AFWTR)

Note: This is SATELLITE DEBRIS
aabbcc
Your satellite tracking list
Your tracking list is empty




NASA's NSSDC Master Catalog

Two Line Element Set (TLE):
1 21369U 75052CP  21059.43672366  .00001548  00000-0  67175-3 0  9991
2 21369  99.6842 247.4489 0095961 193.5520 226.5408 14.23450588516597
Source of the keplerian elements: AFSPC